Regional Weather Roundup
Issued by NWS

Home | Current Version | Previous Version | Text Only | Print | Product List | Glossary On
Versions: 1 2 3 4 5 6 7 8 9 10 11 12 13 14 15 16 17 18 19 20 21 22 23 24 25 26 27 28 29 30 31 32 33 34 35 36 37 38 39 40 41 42 43 44 45 46 47 48 49 50
000
ASUS43 KIND 190209
RWRIN

WEATHER ROUNDUP FOR INDIANA
NATIONAL WEATHER SERVICE INDIANAPOLIS IN
1000 PM EDT FRI APR 18 2014

NOTE: "FAIR" INDICATES FEW OR NO CLOUDS BELOW 12,000 FEET WITH NO
SIGNIFICANT WEATHER AND/OR OBSTRUCTIONS TO VISIBILITY.

* - STATION DOES NOT REPORT WEATHER SUCH AS PRECIPITATION OR FOG.

+ - STATION NOT QUALITY CONTROLLED BY THE NATIONAL WEATHER SERVICE.
    USE DATA WITH CAUTION...ESPECIALLY DEWPOINT AND RELATIVE
    HUMIDITY OBSERVATIONS.

INZ001>003-010>013-019-020-190300-
NORTHWEST INDIANA

CITY           SKY/WX    TMP DP  RH WIND       PRES   REMARKS
GARY /AIRPORT/ CLEAR     37  30  75 NE8       30.37R
LA PORTE +     CLEAR     37  27  65 N7        30.35R
MICHIGAN CITY+ CLEAR     36  28  75 NE6       30.36R
MONTICELLO +   CLEAR     47  36  64 N9G16     30.30R
RENSSELAER +   CLEAR     43  34  70 N12       30.32R
VALPARAISO     CLEAR     37  28  70 N9        30.35R

$$

LMZ046-743>745-190300-
SOUTHERN LAKE MICHIGAN

STATION/POSITION TIME  TEMP WIND        PRES
                       AIR  DIR/SP/G
                 (UTC) (F)  (DEG/KT/KT) (MB)
MICHIGAN CITY    0200   37   20/ 16/ 19   N/A

$$

INZ004-005-014>016-021>024-190300-
NORTH CENTRAL INDIANA

CITY           SKY/WX    TMP DP  RH WIND       PRES   REMARKS
GOSHEN         CLEAR     45  33  63 N9        30.32R
LOGANSPORT +   CLEAR     46  34  61 N13       30.31R
PERU/GRISSOM   CLEAR     51  39  63 N10       30.28R
ROCHESTER +    CLEAR     46  36  66 N9        30.32R
SOUTH BEND     CLEAR     39  25  57 N9        30.34R
WARSAW +       CLEAR     45  36  70 N8        30.31R

$$

INZ006>009-017-018-025>027-190300-
NORTHEAST INDIANA

CITY           SKY/WX    TMP DP  RH WIND       PRES   REMARKS
ANGOLA *+      CLEAR     48  36  61 NW7       30.30R
AUBURN +       CLEAR     52  32  46 NW8       30.29R
FORT WAYNE     CLEAR     53  35  50 N12       30.28R

$$

INZ028-029-035-036-043>045-051>053-190300-
WEST CENTRAL INDIANA

CITY           SKY/WX    TMP DP  RH WIND       PRES   REMARKS
GREENCASTLE +  CLEAR     55  39  54 N3        30.25R
LAFAYETTE      CLEAR     50  35  56 N13       30.29R
TERRE HAUTE    CLEAR     53  42  66 N5        30.25R

$$

INZ030>032-037>040-046>048-054>057-064-065-190300-
CENTRAL INDIANA

CITY           SKY/WX    TMP DP  RH WIND       PRES   REMARKS
CP ATTERBURY + PTCLDY    55  41  58 N3        30.24R
COLUMBUS       CLEAR     55  41  58 N9        30.23S
INDIANAPOLIS   CLEAR     58  37  45 N7        30.24R
-EAGLE CREEK   CLEAR     57  38  48 N9        30.25R
KOKOMO *+      CLEAR     52  36  54 N12       30.28
MARION +       CLEAR     54  33  44 N9        30.28R
MT COMFORT *+  CLEAR     52  41  66 N9        30.26R
SHELBYVILLE    CLEAR     60  41  49 N6        30.24R
ZIONSVILLE +   CLEAR     54  36  51 N10       30.27R

$$

INZ033-034-041-042-049-050-058-059-190300-
EAST CENTRAL INDIANA

CITY           SKY/WX    TMP DP  RH WIND       PRES   REMARKS
MUNCIE         CLEAR     52  40  63 N7        30.26R

$$

INZ060-061-067>069-081>083-085>088-190300-
SOUTHWEST INDIANA

CITY           SKY/WX    TMP DP  RH WIND       PRES   REMARKS
EVANSVILLE     MOCLDY    64  43  46 N5        30.21R
HUNTINGBURG *+ MOCLDY    63  39  42 NE6       30.21R
WASHINGTON +   PTCLDY    57  45  62 N3        30.21S

$$

INZ062-063-066-070>080-084-089>092-190300-
SOUTH CENTRAL AND SOUTHEAST INDIANA

CITY           SKY/WX    TMP DP  RH WIND       PRES   REMARKS
BLOOMINGTON    CLEAR     55  41  59 CALM      30.23R

$$




USA.gov is the U.S. government's official web portal to all federal, state and local government web resources and services.